Time,TemperatureF,DewpointF,PressureIn,WindDirection,WindDirectionDegrees,WindSpeedMPH,WindSpeedGustMPH,Humidity,HourlyPrecipIn,Conditions,Clouds,dailyrainin,SoftwareType,DateUTC
2013-06-13 00:01:00,63.0,63.0,29.74,NNW,337,9.0,18.0,100,0.00,,,0.00,Rainwise IP-100,2013-06-13 04:01:00,
2013-06-13 00:06:00,63.0,63.0,29.74,NNW,337,6.0,17.0,100,0.00,,,0.00,Rainwise IP-100,2013-06-13 04:06:00,
2013-06-13 00:11:00,63.0,63.0,29.75,NNW,337,13.0,15.0,100,0.00,,,0.00,Rainwise IP-100,2013-06-13 04:11:00,
2013-06-13 00:16:00,63.0,63.0,29.75,NW,315,7.0,22.0,100,0.00,,,0.00,Rainwise IP-100,2013-06-13 04:16:00,
2013-06-13 00:21:00,63.0,63.0,29.75,NNW,337,7.0,20.0,100,0.00,,,0.00,Rainwise IP-100,2013-06-13 04:21:00,
2013-06-13 00:26:00,62.0,62.0,29.75,NNW,337,15.0,21.0,100,0.00,,,0.00,Rainwise IP-100,2013-06-13 04:26:00,
2013-06-13 00:31:00,62.0,62.0,29.75,NW,315,19.0,19.0,100,0.00,,,0.00,Rainwise IP-100,2013-06-13 04:31:00,
2013-06-13 00:36:00,62.0,62.0,29.75,NNW,337,12.0,22.0,100,0.00,,,0.00,Rainwise IP-100,2013-06-13 04:36:00,
2013-06-13 00:41:00,61.0,61.0,29.75,NNW,337,12.0,21.0,100,0.00,,,0.00,Rainwise IP-100,2013-06-13 04:41:00,
2013-06-13 00:46:00,61.0,61.0,29.75,North,360,7.0,17.0,100,0.00,,,0.00,Rainwise IP-100,2013-06-13 04:46:00,
2013-06-13 00:51:00,61.0,61.0,29.76,North,360,7.0,19.0,100,0.00,,,0.00,Rainwise IP-100,2013-06-13 04:51:00,
2013-06-13 00:56:00,61.0,61.0,29.76,North,360,9.0,17.0,100,0.00,,,0.00,Rainwise IP-100,2013-06-13 04:56:00,
2013-06-13 01:01:00,61.0,61.0,29.76,North,360,15.0,17.0,100,0.00,,,0.00,Rainwise IP-100,2013-06-13 05:01:00,
2013-06-13 01:07:00,61.0,61.0,29.76,NW,315,7.0,19.0,100,0.00,,,0.00,Rainwise IP-100,2013-06-13 05:07:00,
2013-06-13 01:12:00,61.0,61.0,29.76,North,360,5.0,13.0,100,0.00,,,0.00,Rainwise IP-100,2013-06-13 05:12:00,
2013-06-13 01:17:00,61.0,61.0,29.76,NNW,337,9.0,15.0,100,0.00,,,0.00,Rainwise IP-100,2013-06-13 05:17:00,
2013-06-13 01:22:00,61.0,61.0,29.76,NNW,337,10.0,11.0,100,0.00,,,0.00,Rainwise IP-100,2013-06-13 05:22:00,
2013-06-13 01:27:00,61.0,61.0,29.76,NNW,337,8.0,11.0,100,0.00,,,0.00,Rainwise IP-100,2013-06-13 05:27:00,
2013-06-13 01:32:00,61.0,61.0,29.76,North,360,1.0,10.0,100,0.00,,,0.00,Rainwise IP-100,2013-06-13 05:32:00,
2013-06-13 01:37:00,61.0,61.0,29.76,NW,315,4.0,7.0,100,0.00,,,0.00,Rainwise IP-100,2013-06-13 05:37:00,
2013-06-13 01:42:00,61.0,61.0,29.76,NW,315,4.0,7.0,100,0.00,,,0.00,Rainwise IP-100,2013-06-13 05:42:00,
2013-06-13 01:47:00,61.0,61.0,29.76,NW,315,5.0,9.0,100,0.00,,,0.00,Rainwise IP-100,2013-06-13 05:47:00,
2013-06-13 01:52:00,61.0,61.0,29.75,NW,315,7.0,9.0,100,0.00,,,0.00,Rainwise IP-100,2013-06-13 05:52:00,
2013-06-13 01:57:00,61.0,61.0,29.75,NW,315,10.0,11.0,100,0.00,,,0.00,Rainwise IP-100,2013-06-13 05:57:00,
2013-06-13 02:02:00,61.0,61.0,29.75,WNW,292,6.0,11.0,100,0.00,,,0.00,Rainwise IP-100,2013-06-13 06:02:00,
2013-06-13 02:07:00,61.0,61.0,29.75,NW,315,3.0,14.0,100,0.00,,,0.00,Rainwise IP-100,2013-06-13 06:07:00,
2013-06-13 02:12:00,62.0,62.0,29.75,NW,315,7.0,12.0,100,0.00,,,0.00,Rainwise IP-100,2013-06-13 06:12:00,
2013-06-13 02:17:00,61.0,61.0,29.75,WNW,292,6.0,10.0,100,0.00,,,0.00,Rainwise IP-100,2013-06-13 06:17:00,
2013-06-13 02:23:00,61.0,61.0,29.75,North,360,2.0,12.0,100,0.00,,,0.00,Rainwise IP-100,2013-06-13 06:23:00,
2013-06-13 02:28:00,62.0,62.0,29.75,NW,315,11.0,11.0,100,0.00,,,0.00,Rainwise IP-100,2013-06-13 06:28:00,
2013-06-13 02:33:00,62.0,62.0,29.75,WNW,292,9.0,12.0,100,0.00,,,0.00,Rainwise IP-100,2013-06-13 06:33:00,
2013-06-13 02:36:00,62.0,62.0,29.75,North,360,5.0,13.0,100,0.00,,,0.00,Rainwise IP-100,2013-06-13 06:36:00,
2013-06-13 02:41:00,62.0,62.0,29.75,North,360,9.0,13.0,100,0.00,,,0.00,Rainwise IP-100,2013-06-13 06:41:00,
2013-06-13 02:46:00,62.0,62.0,29.75,NNW,337,2.0,15.0,100,0.00,,,0.00,Rainwise IP-100,2013-06-13 06:46:00,
2013-06-13 02:51:00,62.0,62.0,29.75,North,360,2.0,10.0,100,0.00,,,0.00,Rainwise IP-100,2013-06-13 06:51:00,
2013-06-13 02:54:00,61.0,61.0,29.75,North,360,4.0,12.0,100,0.00,,,0.00,Rainwise IP-100,2013-06-13 06:54:00,
2013-06-13 02:59:00,61.0,61.0,29.75,North,360,0.0,8.0,100,0.00,,,0.00,Rainwise IP-100,2013-06-13 06:59:00,
2013-06-13 03:04:00,61.0,61.0,29.76,NW,315,4.0,6.0,100,0.00,,,0.00,Rainwise IP-100,2013-06-13 07:04:00,
2013-06-13 03:09:00,61.0,61.0,29.76,WNW,292,4.0,5.0,100,0.00,,,0.00,Rainwise IP-100,2013-06-13 07:09:00,
2013-06-13 03:14:00,61.0,61.0,29.76,NW,315,5.0,9.0,100,0.00,,,0.00,Rainwise IP-100,2013-06-13 07:14:00,
2013-06-13 03:19:00,61.0,61.0,29.76,WNW,292,3.0,10.0,100,0.00,,,0.00,Rainwise IP-100,2013-06-13 07:19:00,
2013-06-13 03:24:00,61.0,61.0,29.76,NW,315,0.0,6.0,100,0.00,,,0.00,Rainwise IP-100,2013-06-13 07:24:00,
2013-06-13 03:29:00,61.0,61.0,29.76,WNW,292,2.0,9.0,100,0.00,,,0.00,Rainwise IP-100,2013-06-13 07:29:00,
2013-06-13 03:34:00,61.0,61.0,29.75,WNW,292,2.0,6.0,100,0.00,,,0.00,Rainwise IP-100,2013-06-13 07:34:00,
2013-06-13 03:39:00,61.0,61.0,29.75,WSW,247,0.0,4.0,100,0.00,,,0.00,Rainwise IP-100,2013-06-13 07:39:00,
2013-06-13 03:44:00,59.0,59.0,29.76,WSW,247,0.0,2.0,100,0.00,,,0.00,Rainwise IP-100,2013-06-13 07:44:00,
2013-06-13 03:49:00,59.0,59.0,29.76,WSW,247,0.0,3.0,100,0.00,,,0.00,Rainwise IP-100,2013-06-13 07:49:00,
2013-06-13 03:54:00,58.0,58.0,29.77,WSW,247,0.0,5.0,99,0.00,,,0.00,Rainwise IP-100,2013-06-13 07:54:00,
2013-06-13 03:59:00,58.0,58.0,29.77,West,270,0.0,3.0,99,0.00,,,0.00,Rainwise IP-100,2013-06-13 07:59:00,
2013-06-13 04:04:00,57.0,57.0,29.77,West,270,0.0,2.0,100,0.00,,,0.00,Rainwise IP-100,2013-06-13 08:04:00,
2013-06-13 04:10:00,57.0,57.0,29.77,WNW,292,0.0,4.0,100,0.00,,,0.00,Rainwise IP-100,2013-06-13 08:10:00,
2013-06-13 04:15:00,57.0,57.0,29.77,NW,315,0.0,2.0,100,0.00,,,0.00,Rainwise IP-100,2013-06-13 08:15:00,
2013-06-13 04:20:00,57.0,57.0,29.77,WNW,292,2.0,4.0,100,0.00,,,0.00,Rainwise IP-100,2013-06-13 08:20:00,
2013-06-13 04:25:00,57.0,57.0,29.79,SW,225,0.0,6.0,100,0.00,,,0.00,Rainwise IP-100,2013-06-13 08:25:00,
2013-06-13 04:30:00,57.0,57.0,29.79,NW,315,0.0,5.0,100,0.00,,,0.00,Rainwise IP-100,2013-06-13 08:30:00,
2013-06-13 04:35:00,57.0,57.0,29.79,NW,315,1.0,6.0,100,0.00,,,0.00,Rainwise IP-100,2013-06-13 08:35:00,
2013-06-13 04:40:00,57.0,57.0,29.79,NW,315,2.0,5.0,100,0.00,,,0.00,Rainwise IP-100,2013-06-13 08:40:00,
2013-06-13 04:45:00,58.0,58.0,29.78,West,270,3.0,6.0,100,0.00,,,0.00,Rainwise IP-100,2013-06-13 08:45:00,
2013-06-13 04:50:00,58.0,58.0,29.78,WNW,292,1.0,4.0,100,0.00,,,0.00,Rainwise IP-100,2013-06-13 08:50:00,
2013-06-13 04:55:00,58.0,58.0,29.78,West,270,0.0,5.0,100,0.00,,,0.00,Rainwise IP-100,2013-06-13 08:55:00,
2013-06-13 05:00:00,58.0,51.0,29.78,SW,225,0.0,6.0,77,0.00,,,0.00,Rainwise IP-100,2013-06-13 09:00:00,
2013-06-13 05:05:00,58.0,58.0,29.78,WSW,247,0.0,2.0,100,0.00,,,0.00,Rainwise IP-100,2013-06-13 09:05:00,
2013-06-13 05:10:00,58.0,52.0,29.78,WNW,292,0.0,2.0,80,0.00,,,0.00,Rainwise IP-100,2013-06-13 09:10:00,
2013-06-13 05:15:00,57.0,57.0,29.78,WNW,292,0.0,3.0,100,0.00,,,0.00,Rainwise IP-100,2013-06-13 09:15:00,
2013-06-13 05:20:00,57.0,56.0,29.79,SW,225,0.0,2.0,96,0.00,,,0.00,Rainwise IP-100,2013-06-13 09:20:00,
2013-06-13 05:26:00,57.0,57.0,29.79,WSW,247,0.0,3.0,100,0.00,,,0.00,Rainwise IP-100,2013-06-13 09:26:00,
2013-06-13 05:31:00,57.0,51.0,29.79,West,270,0.0,4.0,80,0.00,,,0.00,Rainwise IP-100,2013-06-13 09:31:00,
2013-06-13 05:36:00,57.0,43.0,29.79,WSW,247,0.0,3.0,59,0.00,,,0.00,Rainwise IP-100,2013-06-13 09:36:00,
2013-06-13 05:41:00,58.0,48.0,29.79,SW,225,1.0,2.0,69,0.00,,,0.00,Rainwise IP-100,2013-06-13 09:41:00,
2013-06-13 05:46:00,58.0,44.0,29.79,WSW,247,0.0,3.0,59,0.00,,,0.00,Rainwise IP-100,2013-06-13 09:46:00,
2013-06-13 05:51:00,58.0,48.0,29.80,WSW,247,0.0,4.0,69,0.00,,,0.00,Rainwise IP-100,2013-06-13 09:51:00,
2013-06-13 05:56:00,58.0,53.5,29.80,West,270,0.0,2.0,84,0.00,,,0.00,Rainwise IP-100,2013-06-13 09:56:00,
2013-06-13 06:01:00,59.0,49.0,29.80,WSW,247,0.0,5.0,70,0.00,,,0.00,Rainwise IP-100,2013-06-13 10:01:00,
2013-06-13 06:06:00,59.0,50.0,29.80,WNW,292,1.0,1.0,72,0.00,,,0.00,Rainwise IP-100,2013-06-13 10:06:00,
2013-06-13 06:11:00,60.0,50.5,29.79,WNW,292,3.0,6.0,71,0.00,,,0.00,Rainwise IP-100,2013-06-13 10:11:00,
2013-06-13 06:16:00,61.0,57.5,29.79,West,270,0.0,6.0,89,0.00,,,0.00,Rainwise IP-100,2013-06-13 10:16:00,
2013-06-13 06:21:00,62.0,60.0,29.79,North,360,0.0,7.0,92,0.00,,,0.00,Rainwise IP-100,2013-06-13 10:21:00,
2013-06-13 06:26:00,62.0,62.0,29.79,North,360,2.0,10.0,100,0.00,,,0.00,Rainwise IP-100,2013-06-13 10:26:00,
2013-06-13 06:31:00,62.0,52.0,29.78,NNW,337,5.0,8.0,70,0.00,,,0.00,Rainwise IP-100,2013-06-13 10:31:00,
2013-06-13 06:36:00,63.0,53.5,29.78,NW,315,1.0,9.0,70,0.00,,,0.00,Rainwise IP-100,2013-06-13 10:36:00,
2013-06-13 06:42:00,63.0,54.0,29.79,NNW,337,3.0,9.0,72,0.00,,,0.00,Rainwise IP-100,2013-06-13 10:42:00,
2013-06-13 06:47:00,63.0,60.0,29.79,NNW,337,7.0,8.0,89,0.00,,,0.00,Rainwise IP-100,2013-06-13 10:47:00,
2013-06-13 06:52:00,64.0,55.0,29.78,NW,315,7.0,9.0,73,0.00,,,0.00,Rainwise IP-100,2013-06-13 10:52:00,
2013-06-13 06:57:00,64.0,54.5,29.78,North,360,0.0,7.0,72,0.00,,,0.00,Rainwise IP-100,2013-06-13 10:57:00,
2013-06-13 07:02:00,64.0,55.0,29.79,NNW,337,1.0,9.0,73,0.00,,,0.00,Rainwise IP-100,2013-06-13 11:02:00,
2013-06-13 07:07:00,64.0,55.0,29.79,NW,315,5.0,9.0,74,0.00,,,0.00,Rainwise IP-100,2013-06-13 11:07:00,
2013-06-13 07:12:00,64.0,55.0,29.79,NNW,337,6.0,8.0,74,0.00,,,0.00,Rainwise IP-100,2013-06-13 11:12:00,
2013-06-13 07:17:00,64.0,55.0,29.79,NNW,337,3.0,9.0,74,0.00,,,0.00,Rainwise IP-100,2013-06-13 11:17:00,
2013-06-13 07:22:00,65.0,56.5,29.79,NW,315,7.0,7.0,74,0.00,,,0.00,Rainwise IP-100,2013-06-13 11:22:00,
2013-06-13 07:27:00,64.0,55.0,29.79,NNW,337,0.0,9.0,74,0.00,,,0.00,Rainwise IP-100,2013-06-13 11:27:00,
2013-06-13 07:32:00,64.0,56.0,29.79,NW,315,1.0,7.0,75,0.00,,,0.00,Rainwise IP-100,2013-06-13 11:32:00,
2013-06-13 07:37:00,64.0,56.5,29.79,NNW,337,3.0,8.0,76,0.00,,,0.00,Rainwise IP-100,2013-06-13 11:37:00,
2013-06-13 07:39:00,64.0,56.5,29.79,North,360,3.0,8.0,76,0.00,,,0.00,Rainwise IP-100,2013-06-13 11:39:00,
2013-06-13 07:44:00,64.0,56.5,29.79,NW,315,5.0,7.0,77,0.00,,,0.00,Rainwise IP-100,2013-06-13 11:44:00,
2013-06-13 07:49:00,65.0,57.5,29.79,North,360,4.0,7.0,77,0.00,,,0.00,Rainwise IP-100,2013-06-13 11:49:00,
2013-06-13 07:54:00,66.0,58.0,29.78,North,360,4.0,6.0,77,0.00,,,0.00,Rainwise IP-100,2013-06-13 11:54:00,
2013-06-13 07:59:00,64.0,57.0,29.78,NW,315,6.0,7.0,78,0.00,,,0.00,Rainwise IP-100,2013-06-13 11:59:00,
2013-06-13 08:04:00,66.0,59.0,29.79,NW,315,2.0,7.0,78,0.00,,,0.00,Rainwise IP-100,2013-06-13 12:04:00,
2013-06-13 08:09:00,65.0,57.5,29.79,NW,315,1.0,6.0,78,0.00,,,0.00,Rainwise IP-100,2013-06-13 12:09:00,
2013-06-13 08:14:00,65.0,59.5,29.79,NW,315,1.0,6.0,83,0.00,,,0.00,Rainwise IP-100,2013-06-13 12:14:00,
2013-06-13 08:19:00,66.0,60.5,29.79,NNW,337,5.0,6.0,83,0.00,,,0.00,Rainwise IP-100,2013-06-13 12:19:00,
2013-06-13 08:24:00,66.0,59.5,29.77,NE,45,4.0,6.0,80,0.00,,,0.00,Rainwise IP-100,2013-06-13 12:24:00,
2013-06-13 08:29:00,66.0,60.5,29.77,NE,45,0.0,7.0,83,0.00,,,0.00,Rainwise IP-100,2013-06-13 12:29:00,
2013-06-13 08:34:00,66.0,59.5,29.78,East,90,2.0,4.0,80,0.00,,,0.00,Rainwise IP-100,2013-06-13 12:34:00,
2013-06-13 08:39:00,65.0,59.0,29.78,ENE,67,2.0,6.0,81,0.00,,,0.00,Rainwise IP-100,2013-06-13 12:39:00,
2013-06-13 08:44:00,65.0,61.5,29.77,East,90,0.0,6.0,88,0.00,,,0.00,Rainwise IP-100,2013-06-13 12:44:00,
2013-06-13 08:50:00,65.0,60.5,29.77,NNE,22,5.0,6.0,86,0.00,,,0.00,Rainwise IP-100,2013-06-13 12:50:00,
2013-06-13 08:55:00,65.0,65.0,29.78,NNE,22,0.0,6.0,100,0.00,,,0.00,Rainwise IP-100,2013-06-13 12:55:00,
2013-06-13 09:00:00,65.0,65.0,29.78,NE,45,2.0,4.0,100,0.00,,,0.00,Rainwise IP-100,2013-06-13 13:00:00,
2013-06-13 09:05:00,65.0,65.0,29.77,NNE,22,0.0,4.0,100,0.00,,,0.00,Rainwise IP-100,2013-06-13 13:05:00,
2013-06-13 09:10:00,65.0,65.0,29.77,ENE,67,0.0,4.0,100,0.00,,,0.00,Rainwise IP-100,2013-06-13 13:10:00,
2013-06-13 09:15:00,66.0,60.0,29.78,ENE,67,0.0,0.0,81,0.00,,,0.00,Rainwise IP-100,2013-06-13 13:15:00,
2013-06-13 09:20:00,66.0,60.0,29.78,SE,135,2.0,3.0,81,0.00,,,0.00,Rainwise IP-100,2013-06-13 13:20:00,
2013-06-13 09:25:00,65.0,65.0,29.78,East,90,3.0,5.0,100,0.00,,,0.00,Rainwise IP-100,2013-06-13 13:25:00,
2013-06-13 09:30:00,65.0,65.0,29.78,ESE,112,0.0,4.0,100,0.00,,,0.00,Rainwise IP-100,2013-06-13 13:30:00,
2013-06-13 09:35:00,65.0,65.0,29.77,East,90,0.0,3.0,100,0.00,,,0.00,Rainwise IP-100,2013-06-13 13:35:00,
2013-06-13 09:40:00,65.0,65.0,29.77,SE,135,0.0,4.0,100,0.00,,,0.00,Rainwise IP-100,2013-06-13 13:40:00,
2013-06-13 09:45:00,64.0,58.0,29.77,SE,135,2.0,3.0,81,0.00,,,0.00,Rainwise IP-100,2013-06-13 13:45:00,
2013-06-13 09:50:00,65.0,61.5,29.77,SE,135,0.0,3.0,89,0.00,,,0.00,Rainwise IP-100,2013-06-13 13:50:00,
2013-06-13 09:55:00,65.0,59.0,29.77,East,90,3.0,3.0,81,0.00,,,0.00,Rainwise IP-100,2013-06-13 13:55:00,
2013-06-13 10:00:00,65.0,65.0,29.77,ESE,112,0.0,5.0,100,0.00,,,0.00,Rainwise IP-100,2013-06-13 14:00:00,
2013-06-13 10:06:00,64.0,57.5,29.77,SE,135,3.0,6.0,80,0.00,,,0.00,Rainwise IP-100,2013-06-13 14:06:00,
2013-06-13 10:11:00,64.0,64.0,29.78,SE,135,1.0,6.0,100,0.00,,,0.00,Rainwise IP-100,2013-06-13 14:11:00,
2013-06-13 10:16:00,64.0,64.0,29.78,South,180,0.0,3.0,100,0.00,,,0.00,Rainwise IP-100,2013-06-13 14:16:00,
2013-06-13 10:21:00,64.0,64.0,29.77,SE,135,1.0,5.0,100,0.00,,,0.00,Rainwise IP-100,2013-06-13 14:21:00,
2013-06-13 10:26:00,65.0,65.0,29.77,ESE,112,1.0,7.0,100,0.00,,,0.00,Rainwise IP-100,2013-06-13 14:26:00,
2013-06-13 10:31:00,65.0,65.0,29.77,South,180,0.0,6.0,100,0.00,,,0.00,Rainwise IP-100,2013-06-13 14:31:00,
2013-06-13 10:36:00,65.0,65.0,29.77,South,180,0.0,8.0,100,0.00,,,0.00,Rainwise IP-100,2013-06-13 14:36:00,
2013-06-13 10:41:00,65.0,65.0,29.77,SE,135,6.0,7.0,100,0.00,,,0.00,Rainwise IP-100,2013-06-13 14:41:00,
2013-06-13 10:46:00,65.0,59.0,29.77,SE,135,8.0,9.0,80,0.00,,,0.00,Rainwise IP-100,2013-06-13 14:46:00,
2013-06-13 10:51:00,66.0,60.0,29.77,East,90,0.0,9.0,81,0.00,,,0.00,Rainwise IP-100,2013-06-13 14:51:00,
2013-06-13 10:56:00,66.0,60.0,29.77,SE,135,6.0,9.0,81,0.00,,,0.00,Rainwise IP-100,2013-06-13 14:56:00,
2013-06-13 11:01:00,66.0,60.0,29.77,East,90,5.0,7.0,82,0.00,,,0.00,Rainwise IP-100,2013-06-13 15:01:00,
2013-06-13 11:06:00,67.0,67.0,29.77,SE,135,1.0,7.0,100,0.00,,,0.00,Rainwise IP-100,2013-06-13 15:06:00,
2013-06-13 11:11:00,66.0,60.0,29.77,ESE,112,2.0,7.0,81,0.00,,,0.00,Rainwise IP-100,2013-06-13 15:11:00,
2013-06-13 11:16:00,65.0,65.0,29.77,East,90,1.0,9.0,100,0.00,,,0.00,Rainwise IP-100,2013-06-13 15:16:00,
2013-06-13 11:22:00,65.0,65.0,29.78,East,90,0.0,8.0,100,0.00,,,0.00,Rainwise IP-100,2013-06-13 15:22:00,
2013-06-13 11:27:00,65.0,65.0,29.78,ENE,67,6.0,9.0,100,0.00,,,0.00,Rainwise IP-100,2013-06-13 15:27:00,
2013-06-13 11:36:00,64.0,64.0,29.77,ESE,112,2.0,9.0,100,0.00,,,0.00,Rainwise IP-100,2013-06-13 15:36:00,
2013-06-13 11:41:00,65.0,65.0,29.77,East,90,2.0,9.0,100,0.00,,,0.00,Rainwise IP-100,2013-06-13 15:41:00,
2013-06-13 11:46:00,65.0,59.0,29.77,ESE,112,2.0,10.0,81,0.00,,,0.00,Rainwise IP-100,2013-06-13 15:46:00,
2013-06-13 11:51:00,65.0,59.0,29.78,ESE,112,4.0,10.0,81,0.00,,,0.00,Rainwise IP-100,2013-06-13 15:51:00,
2013-06-13 11:56:00,65.0,59.0,29.78,SE,135,5.0,7.0,81,0.00,,,0.00,Rainwise IP-100,2013-06-13 15:56:00,
2013-06-13 12:01:00,64.0,59.0,29.78,East,90,6.0,12.0,83,0.00,,,0.00,Rainwise IP-100,2013-06-13 16:01:00,
2013-06-13 12:06:00,64.0,64.0,29.78,SE,135,5.0,9.0,100,0.00,,,0.00,Rainwise IP-100,2013-06-13 16:06:00,
2013-06-13 12:11:00,64.0,64.0,29.77,ESE,112,5.0,10.0,100,0.00,,,0.00,Rainwise IP-100,2013-06-13 16:11:00,
2013-06-13 12:16:00,63.0,57.0,29.77,ESE,112,4.0,11.0,81,0.00,,,0.00,Rainwise IP-100,2013-06-13 16:16:00,
2013-06-13 12:22:00,63.0,57.5,29.77,East,90,4.0,10.0,82,0.00,,,0.00,Rainwise IP-100,2013-06-13 16:22:00,
2013-06-13 12:27:00,63.0,63.0,29.77,East,90,1.0,12.0,100,0.00,,,0.00,Rainwise IP-100,2013-06-13 16:27:00,
2013-06-13 12:32:00,63.0,63.0,29.77,ENE,67,0.0,13.0,100,0.00,,,0.00,Rainwise IP-100,2013-06-13 16:32:00,
2013-06-13 12:37:00,64.0,64.0,29.77,East,90,10.0,10.0,100,0.00,,,0.00,Rainwise IP-100,2013-06-13 16:37:00,
2013-06-13 12:42:00,64.0,64.0,29.75,East,90,7.0,12.0,100,0.00,,,0.00,Rainwise IP-100,2013-06-13 16:42:00,
2013-06-13 12:47:00,64.0,64.0,29.75,East,90,9.0,15.0,100,0.00,,,0.00,Rainwise IP-100,2013-06-13 16:47:00,
2013-06-13 12:52:00,64.0,58.0,29.75,ESE,112,0.0,12.0,81,0.00,,,0.00,Rainwise IP-100,2013-06-13 16:52:00,
2013-06-13 12:57:00,64.0,58.0,29.75,SE,135,0.0,12.0,81,0.00,,,0.00,Rainwise IP-100,2013-06-13 16:57:00,
2013-06-13 13:02:00,63.0,57.0,29.76,ESE,112,10.0,13.0,81,0.00,,,0.00,Rainwise IP-100,2013-06-13 17:02:00,
2013-06-13 13:07:00,63.0,56.5,29.76,SE,135,6.0,13.0,80,0.00,,,0.00,Rainwise IP-100,2013-06-13 17:07:00,
2013-06-13 13:12:00,63.0,56.5,29.77,ESE,112,2.0,10.0,80,0.00,,,0.00,Rainwise IP-100,2013-06-13 17:12:00,
2013-06-13 13:17:00,62.0,56.0,29.77,SE,135,7.0,10.0,80,0.00,,,0.00,Rainwise IP-100,2013-06-13 17:17:00,
2013-06-13 13:22:00,62.0,56.0,29.76,East,90,12.0,12.0,80,0.00,,,0.00,Rainwise IP-100,2013-06-13 17:22:00,
2013-06-13 13:27:00,62.0,62.0,29.76,SE,135,7.0,12.0,100,0.00,,,0.00,Rainwise IP-100,2013-06-13 17:27:00,
2013-06-13 13:32:00,62.0,56.0,29.75,SSW,202,0.0,12.0,80,0.00,,,0.00,Rainwise IP-100,2013-06-13 17:32:00,
2013-06-13 13:38:00,61.0,61.0,29.75,SE,135,4.0,9.0,100,0.00,,,0.00,Rainwise IP-100,2013-06-13 17:38:00,
2013-06-13 13:43:00,62.0,62.0,29.76,SE,135,2.0,12.0,100,0.00,,,0.00,Rainwise IP-100,2013-06-13 17:43:00,
2013-06-13 13:48:00,61.0,61.0,29.76,SE,135,1.0,9.0,100,0.00,,,0.00,Rainwise IP-100,2013-06-13 17:48:00,
2013-06-13 13:53:00,61.0,61.0,29.77,SSE,157,4.0,9.0,100,0.00,,,0.00,Rainwise IP-100,2013-06-13 17:53:00,
2013-06-13 13:58:00,61.0,61.0,29.77,SSW,202,0.0,6.0,100,0.00,,,0.00,Rainwise IP-100,2013-06-13 17:58:00,
2013-06-13 14:03:00,61.0,61.0,29.79,ESE,112,3.0,3.0,100,0.00,,,0.00,Rainwise IP-100,2013-06-13 18:03:00,
2013-06-13 14:08:00,60.0,60.0,29.79,East,90,0.0,7.0,100,0.00,,,0.00,Rainwise IP-100,2013-06-13 18:08:00,
2013-06-13 14:13:00,60.0,60.0,29.78,SE,135,4.0,5.0,100,0.00,,,0.00,Rainwise IP-100,2013-06-13 18:13:00,
2013-06-13 14:18:00,60.0,60.0,29.78,SE,135,0.0,8.0,100,0.00,,,0.00,Rainwise IP-100,2013-06-13 18:18:00,
2013-06-13 14:23:00,60.0,60.0,29.75,SSE,157,0.0,8.0,100,0.00,,,0.00,Rainwise IP-100,2013-06-13 18:23:00,
2013-06-13 14:28:00,59.0,59.0,29.75,ESE,112,10.0,12.0,100,0.00,,,0.00,Rainwise IP-100,2013-06-13 18:28:00,
2013-06-13 14:33:00,60.0,60.0,29.75,East,90,0.0,10.0,100,0.00,,,0.00,Rainwise IP-100,2013-06-13 18:33:00,
2013-06-13 14:38:00,60.0,60.0,29.75,SE,135,6.0,9.0,100,0.00,,,0.00,Rainwise IP-100,2013-06-13 18:38:00,
2013-06-13 14:43:00,59.0,59.0,29.75,NE,45,0.0,11.0,100,0.00,,,0.00,Rainwise IP-100,2013-06-13 18:43:00,
2013-06-13 14:49:00,59.0,59.0,29.75,East,90,3.0,13.0,100,0.00,,,0.00,Rainwise IP-100,2013-06-13 18:49:00,
2013-06-13 14:54:00,59.0,59.0,29.74,SSE,157,5.0,12.0,100,0.00,,,0.00,Rainwise IP-100,2013-06-13 18:54:00,
2013-06-13 14:59:00,60.0,60.0,29.74,SSW,202,1.0,15.0,100,0.00,,,0.00,Rainwise IP-100,2013-06-13 18:59:00,
2013-06-13 15:04:00,60.0,52.0,29.75,SE,135,7.0,13.0,75,0.00,,,0.00,Rainwise IP-100,2013-06-13 19:04:00,
2013-06-13 15:09:00,60.0,52.0,29.75,ESE,112,7.0,12.0,75,0.00,,,0.00,Rainwise IP-100,2013-06-13 19:09:00,
2013-06-13 15:14:00,60.0,52.0,29.76,SE,135,9.0,17.0,75,0.00,,,0.00,Rainwise IP-100,2013-06-13 19:14:00,
2013-06-13 15:19:00,60.0,52.0,29.76,SE,135,10.0,13.0,75,0.00,,,0.00,Rainwise IP-100,2013-06-13 19:19:00,
2013-06-13 15:24:00,60.0,52.0,29.76,SE,135,7.0,11.0,75,0.00,,,0.00,Rainwise IP-100,2013-06-13 19:24:00,
2013-06-13 15:29:00,60.0,52.0,29.76,South,180,7.0,13.0,75,0.00,,,0.00,Rainwise IP-100,2013-06-13 19:29:00,
2013-06-13 15:34:00,60.0,53.5,29.75,South,180,11.0,12.0,79,0.00,,,0.00,Rainwise IP-100,2013-06-13 19:34:00,
2013-06-13 15:39:00,60.0,60.0,29.75,East,90,6.0,15.0,100,0.00,,,0.00,Rainwise IP-100,2013-06-13 19:39:00,
2013-06-13 15:44:00,60.0,60.0,29.71,SE,135,14.0,17.0,100,0.00,,,0.00,Rainwise IP-100,2013-06-13 19:44:00,
2013-06-13 15:49:00,60.0,60.0,29.71,South,180,6.0,16.0,100,0.00,,,0.00,Rainwise IP-100,2013-06-13 19:49:00,
2013-06-13 15:54:00,60.0,60.0,29.71,SE,135,15.0,19.0,100,0.00,,,0.00,Rainwise IP-100,2013-06-13 19:54:00,
2013-06-13 15:59:00,60.0,60.0,29.71,SE,135,11.0,17.0,100,0.00,,,0.00,Rainwise IP-100,2013-06-13 19:59:00,
2013-06-13 16:05:00,60.0,60.0,29.72,SE,135,12.0,15.0,100,0.00,,,0.00,Rainwise IP-100,2013-06-13 20:05:00,
2013-06-13 16:10:00,60.0,60.0,29.72,ESE,112,4.0,17.0,100,0.00,,,0.00,Rainwise IP-100,2013-06-13 20:10:00,
2013-06-13 16:15:00,61.0,54.0,29.72,SE,135,5.0,14.0,77,0.00,,,0.00,Rainwise IP-100,2013-06-13 20:15:00,
2013-06-13 16:20:00,61.0,54.0,29.72,SE,135,6.0,12.0,77,0.00,,,0.00,Rainwise IP-100,2013-06-13 20:20:00,
2013-06-13 16:25:00,61.0,54.0,29.72,SE,135,5.0,14.0,77,0.00,,,0.00,Rainwise IP-100,2013-06-13 20:25:00,
2013-06-13 16:30:00,61.0,54.0,29.72,SE,135,6.0,13.0,78,0.00,,,0.00,Rainwise IP-100,2013-06-13 20:30:00,
2013-06-13 16:35:00,61.0,54.0,29.71,ESE,112,5.0,16.0,77,0.00,,,0.00,Rainwise IP-100,2013-06-13 20:35:00,
2013-06-13 16:40:00,61.0,54.0,29.71,ENE,67,0.0,17.0,78,0.00,,,0.00,Rainwise IP-100,2013-06-13 20:40:00,
2013-06-13 16:45:00,61.0,54.0,29.70,South,180,5.0,16.0,78,0.00,,,0.00,Rainwise IP-100,2013-06-13 20:45:00,
2013-06-13 16:50:00,61.0,54.5,29.70,SE,135,9.0,17.0,80,0.00,,,0.00,Rainwise IP-100,2013-06-13 20:50:00,
2013-06-13 16:55:00,61.0,54.5,29.70,SE,135,4.0,14.0,79,0.00,,,0.00,Rainwise IP-100,2013-06-13 20:55:00,
2013-06-13 17:00:00,61.0,54.5,29.69,ESE,112,3.0,14.0,80,0.00,,,0.00,Rainwise IP-100,2013-06-13 21:00:00,
2013-06-13 17:05:00,61.0,54.5,29.69,SE,135,11.0,14.0,79,0.00,,,0.00,Rainwise IP-100,2013-06-13 21:05:00,
2013-06-13 17:10:00,61.0,54.5,29.69,SE,135,6.0,15.0,80,0.00,,,0.00,Rainwise IP-100,2013-06-13 21:10:00,
2013-06-13 17:15:00,61.0,54.0,29.69,East,90,0.0,13.0,78,0.00,,,0.00,Rainwise IP-100,2013-06-13 21:15:00,
2013-06-13 17:21:00,61.0,54.5,29.69,ESE,112,1.0,10.0,80,0.00,,,0.00,Rainwise IP-100,2013-06-13 21:21:00,
2013-06-13 17:26:00,61.0,54.0,29.69,East,90,2.0,12.0,78,0.00,,,0.00,Rainwise IP-100,2013-06-13 21:26:00,
2013-06-13 17:31:00,61.0,54.5,29.69,ESE,112,8.0,11.0,80,0.00,,,0.00,Rainwise IP-100,2013-06-13 21:31:00,
2013-06-13 17:36:00,60.0,53.5,29.69,East,90,6.0,11.0,78,0.00,,,0.00,Rainwise IP-100,2013-06-13 21:36:00,
2013-06-13 17:41:00,60.0,54.0,29.67,East,90,6.0,11.0,80,0.00,,,0.00,Rainwise IP-100,2013-06-13 21:41:00,
2013-06-13 17:46:00,60.0,53.5,29.67,SE,135,6.0,14.0,78,0.00,,,0.00,Rainwise IP-100,2013-06-13 21:46:00,
2013-06-13 17:51:00,60.0,54.0,29.67,SE,135,10.0,16.0,80,0.00,,,0.00,Rainwise IP-100,2013-06-13 21:51:00,
2013-06-13 17:56:00,60.0,53.0,29.67,SSE,157,5.0,12.0,77,0.00,,,0.00,Rainwise IP-100,2013-06-13 21:56:00,
2013-06-13 18:01:00,60.0,54.0,29.67,SE,135,3.0,15.0,80,0.00,,,0.00,Rainwise IP-100,2013-06-13 22:01:00,
2013-06-13 18:06:00,59.0,52.0,29.67,SE,135,12.0,14.0,77,0.00,,,0.00,Rainwise IP-100,2013-06-13 22:06:00,
2013-06-13 18:11:00,59.0,52.0,29.69,East,90,2.0,13.0,77,0.00,,,0.00,Rainwise IP-100,2013-06-13 22:11:00,
2013-06-13 18:16:00,59.0,52.0,29.69,ENE,67,7.0,13.0,77,0.00,,,0.00,Rainwise IP-100,2013-06-13 22:16:00,
2013-06-13 18:21:00,59.0,52.0,29.68,SE,135,9.0,12.0,77,0.00,,,0.00,Rainwise IP-100,2013-06-13 22:21:00,
2013-06-13 18:26:00,59.0,51.0,29.68,SE,135,9.0,17.0,76,0.00,,,0.00,Rainwise IP-100,2013-06-13 22:26:00,
2013-06-13 18:31:00,58.0,50.5,29.69,ESE,112,6.0,11.0,75,0.00,,,0.00,Rainwise IP-100,2013-06-13 22:31:00,
2013-06-13 18:37:00,58.0,50.5,29.69,East,90,4.0,15.0,75,0.00,,,0.00,Rainwise IP-100,2013-06-13 22:37:00,
2013-06-13 18:42:00,58.0,50.0,29.67,East,90,6.0,15.0,74,0.00,,,0.00,Rainwise IP-100,2013-06-13 22:42:00,
2013-06-13 18:47:00,58.0,50.0,29.67,ESE,112,4.0,14.0,74,0.00,,,0.00,Rainwise IP-100,2013-06-13 22:47:00,
2013-06-13 18:52:00,58.0,50.0,29.67,ENE,67,3.0,15.0,74,0.00,,,0.00,Rainwise IP-100,2013-06-13 22:52:00,
2013-06-13 18:57:00,58.0,50.0,29.67,SE,135,5.0,11.0,74,0.00,,,0.00,Rainwise IP-100,2013-06-13 22:57:00,
2013-06-13 19:02:00,58.0,50.0,29.67,East,90,7.0,13.0,74,0.00,,,0.00,Rainwise IP-100,2013-06-13 23:02:00,
2013-06-13 19:07:00,58.0,50.0,29.67,ESE,112,7.0,15.0,74,0.00,,,0.00,Rainwise IP-100,2013-06-13 23:07:00,
2013-06-13 19:12:00,58.0,50.0,29.67,ESE,112,6.0,13.0,74,0.00,,,0.00,Rainwise IP-100,2013-06-13 23:12:00,
2013-06-13 19:17:00,58.0,50.0,29.67,East,90,9.0,10.0,74,0.00,,,0.00,Rainwise IP-100,2013-06-13 23:17:00,
2013-06-13 19:22:00,58.0,50.0,29.67,South,180,0.0,9.0,74,0.00,,,0.00,Rainwise IP-100,2013-06-13 23:22:00,
2013-06-13 19:27:00,58.0,50.0,29.67,East,90,6.0,11.0,74,0.00,,,0.00,Rainwise IP-100,2013-06-13 23:27:00,
2013-06-13 19:32:00,58.0,50.0,29.68,ESE,112,8.0,12.0,74,0.00,,,0.00,Rainwise IP-100,2013-06-13 23:32:00,
2013-06-13 19:37:00,58.0,50.0,29.68,East,90,7.0,15.0,74,0.00,,,0.00,Rainwise IP-100,2013-06-13 23:37:00,
2013-06-13 19:42:00,58.0,50.0,29.67,East,90,7.0,13.0,74,0.00,,,0.00,Rainwise IP-100,2013-06-13 23:42:00,
2013-06-13 19:48:00,58.0,50.0,29.67,East,90,7.0,17.0,74,0.00,,,0.00,Rainwise IP-100,2013-06-13 23:48:00,
2013-06-13 19:53:00,57.0,49.0,29.67,East,90,8.0,15.0,74,0.00,,,0.00,Rainwise IP-100,2013-06-13 23:53:00,
2013-06-13 19:58:00,57.0,48.0,29.67,East,90,0.0,11.0,73,0.00,,,0.00,Rainwise IP-100,2013-06-13 23:58:00,
2013-06-13 20:03:00,57.0,48.0,29.66,ESE,112,4.0,15.0,73,0.00,,,0.00,Rainwise IP-100,2013-06-14 00:03:00,
2013-06-13 20:08:00,57.0,48.0,29.66,SE,135,6.0,17.0,73,0.00,,,0.00,Rainwise IP-100,2013-06-14 00:08:00,
2013-06-13 20:13:00,57.0,48.0,29.65,ENE,67,3.0,16.0,73,0.00,,,0.00,Rainwise IP-100,2013-06-14 00:13:00,
2013-06-13 20:18:00,57.0,48.0,29.65,SE,135,7.0,14.0,73,0.00,,,0.00,Rainwise IP-100,2013-06-14 00:18:00,
2013-06-13 20:23:00,57.0,48.0,29.65,SSW,202,0.0,12.0,73,0.00,,,0.00,Rainwise IP-100,2013-06-14 00:23:00,
2013-06-13 20:28:00,57.0,48.0,29.65,SE,135,6.0,15.0,73,0.00,,,0.00,Rainwise IP-100,2013-06-14 00:28:00,
2013-06-13 20:33:00,57.0,48.0,29.65,ESE,112,8.0,15.0,73,0.00,,,0.00,Rainwise IP-100,2013-06-14 00:33:00,
2013-06-13 20:38:00,57.0,48.0,29.65,East,90,2.0,16.0,72,0.00,,,0.00,Rainwise IP-100,2013-06-14 00:38:00,
2013-06-13 20:43:00,56.0,47.0,29.65,East,90,1.0,16.0,71,0.00,,,0.00,Rainwise IP-100,2013-06-14 00:43:00,
2013-06-13 20:48:00,56.0,46.0,29.65,East,90,6.0,15.0,69,0.00,,,0.00,Rainwise IP-100,2013-06-14 00:48:00,
2013-06-13 20:53:00,56.0,46.0,29.65,SE,135,3.0,13.0,69,0.00,,,0.00,Rainwise IP-100,2013-06-14 00:53:00,
2013-06-13 20:58:00,56.0,46.0,29.65,ENE,67,13.0,14.0,68,0.00,,,0.00,Rainwise IP-100,2013-06-14 00:58:00,
2013-06-13 21:04:00,56.0,46.0,29.65,ENE,67,4.0,16.0,68,0.00,,,0.00,Rainwise IP-100,2013-06-14 01:04:00,
2013-06-13 21:09:00,56.0,46.0,29.65,ESE,112,12.0,14.0,68,0.00,,,0.00,Rainwise IP-100,2013-06-14 01:09:00,
2013-06-13 21:14:00,56.0,46.0,29.65,SE,135,1.0,13.0,68,0.00,,,0.00,Rainwise IP-100,2013-06-14 01:14:00,
2013-06-13 21:19:00,56.0,45.0,29.65,ESE,112,3.0,17.0,67,0.00,,,0.00,Rainwise IP-100,2013-06-14 01:19:00,
2013-06-13 21:24:00,56.0,45.0,29.66,SE,135,11.0,15.0,67,0.00,,,0.00,Rainwise IP-100,2013-06-14 01:24:00,
2013-06-13 21:29:00,56.0,45.0,29.66,East,90,7.0,13.0,66,0.00,,,0.00,Rainwise IP-100,2013-06-14 01:29:00,
2013-06-13 21:34:00,56.0,45.0,29.65,ENE,67,5.0,15.0,66,0.00,,,0.00,Rainwise IP-100,2013-06-14 01:34:00,
2013-06-13 21:40:00,56.0,45.0,29.65,SE,135,11.0,19.0,66,0.00,,,0.00,Rainwise IP-100,2013-06-14 01:40:00,
2013-06-13 21:45:00,56.0,45.0,29.66,SE,135,2.0,16.0,66,0.00,,,0.00,Rainwise IP-100,2013-06-14 01:45:00,
2013-06-13 21:50:00,56.0,44.0,29.66,East,90,5.0,15.0,65,0.00,,,0.00,Rainwise IP-100,2013-06-14 01:50:00,
2013-06-13 21:55:00,55.0,44.0,29.65,ENE,67,7.0,17.0,65,0.00,,,0.00,Rainwise IP-100,2013-06-14 01:55:00,
2013-06-13 22:00:00,56.0,44.0,29.65,East,90,6.0,21.0,64,0.00,,,0.00,Rainwise IP-100,2013-06-14 02:00:00,
2013-06-13 22:05:00,56.0,44.0,29.64,ESE,112,0.0,21.0,64,0.00,,,0.00,Rainwise IP-100,2013-06-14 02:05:00,
2013-06-13 22:10:00,56.0,44.0,29.64,ESE,112,9.0,16.0,64,0.00,,,0.00,Rainwise IP-100,2013-06-14 02:10:00,
2013-06-13 22:15:00,56.0,44.0,29.64,East,90,6.0,19.0,64,0.00,,,0.00,Rainwise IP-100,2013-06-14 02:15:00,
2013-06-13 22:20:00,56.0,43.0,29.64,ESE,112,7.0,16.0,63,0.00,,,0.00,Rainwise IP-100,2013-06-14 02:20:00,
2013-06-13 22:25:00,55.0,43.0,29.64,East,90,13.0,20.0,63,0.00,,,0.00,Rainwise IP-100,2013-06-14 02:25:00,
2013-06-13 22:30:00,56.0,43.0,29.63,East,90,7.0,19.0,62,0.00,,,0.00,Rainwise IP-100,2013-06-14 02:30:00,
2013-06-13 22:35:00,55.0,42.0,29.63,NE,45,18.0,23.0,62,0.00,,,0.00,Rainwise IP-100,2013-06-14 02:35:00,
2013-06-13 22:40:00,55.0,45.0,29.61,East,90,4.0,23.0,69,0.00,,,0.00,Rainwise IP-100,2013-06-14 02:40:00,
2013-06-13 22:45:00,55.0,41.0,29.61,ENE,67,5.0,23.0,59,0.00,,,0.00,Rainwise IP-100,2013-06-14 02:45:00,
2013-06-13 22:50:00,55.0,45.0,29.61,ENE,67,9.0,20.0,68,0.00,,,0.00,Rainwise IP-100,2013-06-14 02:50:00,
2013-06-13 22:56:00,55.0,41.0,29.61,East,90,11.0,27.0,58,0.00,,,0.00,Rainwise IP-100,2013-06-14 02:56:00,
2013-06-13 23:01:00,55.0,44.0,29.60,East,90,2.0,25.0,66,0.00,,,0.00,Rainwise IP-100,2013-06-14 03:01:00,
2013-06-13 23:06:00,55.0,39.0,29.60,East,90,16.0,25.0,54,0.00,,,0.00,Rainwise IP-100,2013-06-14 03:06:00,
2013-06-13 23:11:00,55.0,43.0,29.58,ESE,112,12.0,22.0,64,0.00,,,0.00,Rainwise IP-100,2013-06-14 03:11:00,
2013-06-13 23:16:00,55.0,37.0,29.58,East,90,17.0,24.0,51,0.00,,,0.00,Rainwise IP-100,2013-06-14 03:16:00,
2013-06-13 23:21:00,55.0,43.0,29.58,East,90,24.0,30.0,63,0.00,,,0.00,Rainwise IP-100,2013-06-14 03:21:00,
2013-06-13 23:26:00,55.0,37.0,29.58,East,90,11.0,24.0,49,0.00,,,0.00,Rainwise IP-100,2013-06-14 03:26:00,
2013-06-13 23:31:00,55.0,42.0,29.59,East,90,12.0,22.0,61,0.00,,,0.00,Rainwise IP-100,2013-06-14 03:31:00,
2013-06-13 23:36:00,55.0,36.0,29.59,East,90,6.0,23.0,48,0.00,,,0.00,Rainwise IP-100,2013-06-14 03:36:00,
2013-06-13 23:41:00,55.0,36.0,29.58,East,90,13.0,22.0,48,0.00,,,0.00,Rainwise IP-100,2013-06-14 03:41:00,
2013-06-13 23:46:00,55.0,35.0,29.58,NE,45,6.0,25.0,46,0.00,,,0.00,Rainwise IP-100,2013-06-14 03:46:00,
2013-06-13 23:51:00,55.0,36.0,29.57,ENE,67,10.0,24.0,47,0.00,,,0.00,Rainwise IP-100,2013-06-14 03:51:00,
2013-06-13 23:56:00,55.0,33.0,29.57,East,90,6.0,27.0,44,0.00,,,0.00,Rainwise IP-100,2013-06-14 03:56:00,